GFA3KP OIIE-OBBI

Flight info

Callsign GFA3KP
Flight time 1h 41m
Altitude 35000
Route EGVEL L124 PEKAM P574 SYZ/N0471F340 G663 KOBOK
Aircraft A320/M-SDE3FGHIRWY/LB1

Departure

Time 2026-05-08 16:35
Airport Imam Khomeini International Airport (OIIE)

Arrival

Time 2026-05-08 18:16
Airport Bahrain International Airport (OBBI)
Time Latitude Longitude Altitude Speed Heading
2026-05-08 16:17 35.40971 51.15676 3253 ft 0 kts 198°
2026-05-08 16:29 35.40989 51.15683 3253 ft 3 kts 196°
2026-05-08 16:29 35.41012 51.15691 3253 ft 3 kts 192°
2026-05-08 16:29 35.41036 51.15695 3252 ft 3 kts 181°
2026-05-08 16:30 35.41058 51.15692 3253 ft 3 kts 148°
2026-05-08 16:30 35.41067 51.15682 3254 ft 0 kts 109°
2026-05-08 16:32 35.41053 51.15733 3253 ft 14 kts 109°
2026-05-08 16:32 35.41011 51.15883 3252 ft 21 kts 109°
2026-05-08 16:32 35.40976 51.16053 3251 ft 18 kts 68°
2026-05-08 16:32 35.41078 51.16118 3251 ft 16 kts 18°
2026-05-08 16:33 35.41184 51.16162 3251 ft 13 kts 17°
2026-05-08 16:33 35.41194 51.16166 3251 ft 4 kts 16°
2026-05-08 16:33 35.41249 51.16149 3252 ft 12 kts 311°
2026-05-08 16:33 35.41263 51.16105 3253 ft 0 kts 288°
2026-05-08 16:34 35.41327 51.15873 3255 ft 67 kts 289°
2026-05-08 16:34 35.41463 51.15397 3258 ft 111 kts 289°
2026-05-08 16:34 35.41775 51.14283 3267 ft 164 kts 289°
2026-05-08 16:34 35.42176 51.12792 3441 ft 194 kts 291°
2026-05-08 16:35 35.42562 51.11205 4165 ft 195 kts 290°
2026-05-08 16:35 35.42944 51.09588 4822 ft 199 kts 288°
2026-05-08 16:35 35.43405 51.07982 5331 ft 202 kts 290°
2026-05-08 16:35 35.43938 51.06374 5853 ft 205 kts 292°
2026-05-08 16:36 35.44537 51.04781 6382 ft 206 kts 294°
2026-05-08 16:36 35.45157 51.03164 6705 ft 219 kts 289°
2026-05-08 16:36 35.45756 51.01339 6924 ft 242 kts 289°
2026-05-08 16:36 35.46338 50.99303 7198 ft 263 kts 280°
2026-05-08 16:37 35.46306 50.97035 7595 ft 274 kts 252°
2026-05-08 16:37 35.45370 50.94998 8283 ft 278 kts 225°
2026-05-08 16:37 35.43742 50.93754 9056 ft 281 kts 197°
2026-05-08 16:37 35.41779 50.93544 9875 ft 287 kts 181°
2026-05-08 16:38 35.39752 50.93625 10393 ft 301 kts 180°
2026-05-08 16:38 35.37569 50.93727 10620 ft 324 kts 180°
2026-05-08 16:38 35.35248 50.93838 10776 ft 347 kts 180°
2026-05-08 16:38 35.32778 50.93959 11130 ft 361 kts 180°
2026-05-08 16:39 35.30234 50.94085 11742 ft 367 kts 180°
2026-05-08 16:39 35.27672 50.94209 12428 ft 370 kts 180°
2026-05-08 16:39 35.25138 50.94329 13129 ft 373 kts 180°
2026-05-08 16:39 35.22532 50.94451 13838 ft 376 kts 180°
2026-05-08 16:40 35.19880 50.94575 14479 ft 378 kts 180°
2026-05-08 16:40 35.17275 50.94696 15131 ft 380 kts 180°
2026-05-08 16:40 35.14625 50.94816 15793 ft 381 kts 180°
2026-05-08 16:40 35.11947 50.94936 16407 ft 385 kts 180°
2026-05-08 16:41 35.09260 50.95056 17050 ft 387 kts 180°
2026-05-08 16:41 35.06561 50.95178 17696 ft 390 kts 181°
2026-05-08 16:41 35.03843 50.95298 18335 ft 392 kts 181°
2026-05-08 16:42 34.98363 50.95540 19426 ft 396 kts 181°
2026-05-08 16:42 34.95605 50.95665 19955 ft 397 kts 181°
2026-05-08 16:42 34.92837 50.95794 20472 ft 399 kts 181°
2026-05-08 16:42 34.90052 50.95922 20972 ft 401 kts 182°
2026-05-08 16:43 34.87259 50.96050 21479 ft 402 kts 182°
2026-05-08 16:43 34.84451 50.96176 21964 ft 404 kts 182°
2026-05-08 16:43 34.82084 50.96280 22376 ft 406 kts 182°
2026-05-08 16:43 34.79633 50.96388 22774 ft 407 kts 182°
2026-05-08 16:44 34.76776 50.96512 23234 ft 409 kts 183°
2026-05-08 16:44 34.73925 50.96632 23628 ft 411 kts 183°
2026-05-08 16:44 34.71058 50.96755 23982 ft 413 kts 183°
2026-05-08 16:44 34.68185 50.96882 24344 ft 414 kts 183°
2026-05-08 16:45 34.65301 50.97014 24722 ft 414 kts 183°
2026-05-08 16:45 34.62455 50.97144 25102 ft 414 kts 183°
2026-05-08 16:45 34.59574 50.97276 25466 ft 415 kts 183°
2026-05-08 16:45 34.56690 50.97409 25822 ft 415 kts 183°
2026-05-08 16:46 34.53800 50.97541 26134 ft 416 kts 183°
2026-05-08 16:46 34.50916 50.97668 26456 ft 417 kts 184°
2026-05-08 16:46 34.48019 50.97792 26772 ft 418 kts 184°
2026-05-08 16:46 34.45106 50.97918 27076 ft 419 kts 184°
2026-05-08 16:47 34.42192 50.98046 27390 ft 419 kts 184°
2026-05-08 16:47 34.39274 50.98177 27687 ft 419 kts 184°
2026-05-08 16:47 34.36365 50.98309 27955 ft 420 kts 184°
2026-05-08 16:47 34.33439 50.98444 28154 ft 421 kts 183°
2026-05-08 16:48 34.30514 50.98577 28467 ft 419 kts 183°
2026-05-08 16:48 34.27610 50.98707 28824 ft 418 kts 184°
2026-05-08 16:48 34.24709 50.98832 29180 ft 416 kts 184°
2026-05-08 16:48 34.21831 50.98954 29568 ft 414 kts 184°
2026-05-08 16:49 34.18956 50.99078 29952 ft 412 kts 184°
2026-05-08 16:49 34.16094 50.99205 30324 ft 410 kts 184°
2026-05-08 16:49 34.13258 50.99334 30670 ft 407 kts 184°
2026-05-08 16:49 34.10431 50.99463 30983 ft 405 kts 184°
2026-05-08 16:50 34.07618 50.99588 31294 ft 403 kts 184°
2026-05-08 16:50 34.04819 50.99710 31607 ft 402 kts 185°
2026-05-08 16:50 34.02039 50.99829 31927 ft 400 kts 185°
2026-05-08 16:50 33.99299 50.99948 32244 ft 398 kts 185°
2026-05-08 16:51 33.96547 51.00070 32569 ft 395 kts 185°
2026-05-08 16:51 33.93797 51.00189 32868 ft 395 kts 185°
2026-05-08 16:51 33.91046 51.00306 33162 ft 395 kts 185°
2026-05-08 16:51 33.88298 51.00427 33489 ft 394 kts 186°
2026-05-08 16:52 33.85558 51.00550 33826 ft 393 kts 186°
2026-05-08 16:52 33.82837 51.00671 34157 ft 391 kts 186°
2026-05-08 16:52 33.80116 51.00790 34430 ft 390 kts 186°
2026-05-08 16:52 33.77404 51.00909 34709 ft 389 kts 186°
2026-05-08 16:53 33.72009 51.01139 35125 ft 387 kts 187°
2026-05-08 16:53 33.66608 51.01374 35179 ft 389 kts 187°
2026-05-08 16:54 33.61222 51.01612 35187 ft 389 kts 187°
2026-05-08 16:54 33.55800 51.01849 35187 ft 389 kts 187°
2026-05-08 16:55 33.50396 51.02084 35189 ft 389 kts 186°
2026-05-08 16:55 33.47671 51.02550 35186 ft 403 kts 176°
2026-05-08 16:55 33.44973 51.03588 35186 ft 410 kts 172°
2026-05-08 16:56 33.39573 51.05844 35186 ft 410 kts 172°
2026-05-08 16:56 33.34183 51.08083 35169 ft 410 kts 172°
2026-05-08 16:57 33.28817 51.10301 35168 ft 410 kts 172°
2026-05-08 16:57 33.23425 51.12532 35164 ft 410 kts 172°
2026-05-08 16:58 33.18030 51.14760 35142 ft 410 kts 172°
2026-05-08 16:58 33.12624 51.16989 35144 ft 410 kts 172°
2026-05-08 16:59 33.07218 51.19214 35146 ft 411 kts 172°
2026-05-08 16:59 33.01818 51.21433 35151 ft 411 kts 172°
2026-05-08 17:00 32.96419 51.23648 35139 ft 411 kts 172°
2026-05-08 17:00 32.91021 51.25861 35143 ft 411 kts 172°
2026-05-08 17:01 32.85647 51.28067 35146 ft 411 kts 172°
2026-05-08 17:01 32.80242 51.30282 35131 ft 412 kts 172°
2026-05-08 17:02 32.74809 51.32504 35149 ft 413 kts 172°
2026-05-08 17:02 32.69366 51.34727 35145 ft 413 kts 173°
2026-05-08 17:03 32.63931 51.36951 35122 ft 413 kts 172°
2026-05-08 17:03 32.58488 51.39170 35126 ft 414 kts 173°
2026-05-08 17:04 32.53034 51.41385 35133 ft 415 kts 172°
2026-05-08 17:04 32.47565 51.43607 35130 ft 415 kts 172°
2026-05-08 17:05 32.42095 51.45821 35110 ft 416 kts 172°
2026-05-08 17:05 32.36607 51.48038 35140 ft 418 kts 172°
2026-05-08 17:06 32.31101 51.50269 35154 ft 418 kts 172°
2026-05-08 17:06 32.25625 51.52491 35165 ft 418 kts 172°
2026-05-08 17:07 32.20121 51.54713 35169 ft 418 kts 172°
2026-05-08 17:07 32.14609 51.56933 35169 ft 418 kts 172°
2026-05-08 17:08 32.09104 51.59146 35156 ft 418 kts 172°
2026-05-08 17:08 32.03590 51.61357 35158 ft 419 kts 172°
2026-05-08 17:09 31.98067 51.63573 35169 ft 420 kts 172°
2026-05-08 17:09 31.92565 51.65790 35188 ft 420 kts 172°
2026-05-08 17:10 31.87018 51.68019 35184 ft 422 kts 172°
2026-05-08 17:10 31.81428 51.70252 35195 ft 424 kts 172°
2026-05-08 17:11 31.75834 51.72480 35211 ft 425 kts 172°
2026-05-08 17:11 31.70232 51.74718 35193 ft 426 kts 171°
2026-05-08 17:12 31.64613 51.76972 35211 ft 426 kts 172°
2026-05-08 17:12 31.59003 51.79215 35227 ft 426 kts 172°
2026-05-08 17:13 31.53390 51.81445 35245 ft 426 kts 172°
2026-05-08 17:13 31.47800 51.83660 35218 ft 427 kts 172°
2026-05-08 17:14 31.42182 51.85894 35235 ft 426 kts 172°
2026-05-08 17:14 31.36559 51.88130 35239 ft 426 kts 172°
2026-05-08 17:15 31.30936 51.90361 35208 ft 425 kts 171°
2026-05-08 17:15 31.25337 51.92567 35248 ft 424 kts 171°
2026-05-08 17:16 31.19786 51.94756 35257 ft 423 kts 171°
2026-05-08 17:16 31.14203 51.96965 35253 ft 423 kts 171°
2026-05-08 17:17 31.08641 51.99161 35233 ft 422 kts 171°
2026-05-08 17:17 31.03079 52.01349 35238 ft 422 kts 171°
2026-05-08 17:18 30.97508 52.03541 35238 ft 422 kts 171°
2026-05-08 17:18 30.91942 52.05726 35222 ft 423 kts 171°
2026-05-08 17:19 30.86373 52.07906 35222 ft 423 kts 171°
2026-05-08 17:19 30.80794 52.10082 35212 ft 421 kts 171°
2026-05-08 17:20 30.75228 52.12259 35226 ft 423 kts 171°
2026-05-08 17:20 30.69640 52.14449 35207 ft 423 kts 171°
2026-05-08 17:21 30.64062 52.16627 35215 ft 423 kts 171°
2026-05-08 17:21 30.58474 52.18806 35211 ft 423 kts 171°
2026-05-08 17:22 30.52887 52.20969 35215 ft 423 kts 171°
2026-05-08 17:22 30.47336 52.23118 35183 ft 421 kts 170°
2026-05-08 17:23 30.41769 52.25268 35204 ft 423 kts 171°
2026-05-08 17:23 30.36167 52.27433 35202 ft 424 kts 171°
2026-05-08 17:24 30.30569 52.29594 35210 ft 424 kts 171°
2026-05-08 17:24 30.24998 52.31744 35197 ft 424 kts 171°
2026-05-08 17:25 30.19399 52.33897 35195 ft 424 kts 171°
2026-05-08 17:25 30.13812 52.36036 35160 ft 423 kts 171°
2026-05-08 17:26 30.08192 52.38183 35170 ft 426 kts 171°
2026-05-08 17:26 30.02574 52.40348 35173 ft 426 kts 171°
2026-05-08 17:27 29.96950 52.42512 35172 ft 426 kts 171°
2026-05-08 17:27 29.91311 52.44669 35158 ft 427 kts 170°
2026-05-08 17:28 29.85700 52.46810 35161 ft 427 kts 170°
2026-05-08 17:28 29.80064 52.48970 35159 ft 427 kts 170°
2026-05-08 17:29 29.74413 52.51121 35161 ft 427 kts 171°
2026-05-08 17:29 29.69720 52.52902 35137 ft 428 kts 170°
2026-05-08 17:30 29.64035 52.55063 35141 ft 430 kts 170°
2026-05-08 17:30 29.58329 52.56979 35140 ft 420 kts 180°
2026-05-08 17:31 29.55475 52.57146 35145 ft 409 kts 190°
2026-05-08 17:31 29.52692 52.56669 35136 ft 400 kts 200°
2026-05-08 17:31 29.47745 52.54030 35137 ft 391 kts 217°
2026-05-08 17:32 29.43229 52.50528 35137 ft 394 kts 217°
2026-05-08 17:32 29.38682 52.47029 35138 ft 393 kts 216°
2026-05-08 17:33 29.34141 52.43541 35135 ft 393 kts 216°
2026-05-08 17:33 29.29602 52.40050 35137 ft 393 kts 216°
2026-05-08 17:34 29.25061 52.36555 35143 ft 394 kts 216°
2026-05-08 17:34 29.20511 52.33057 35131 ft 396 kts 216°
2026-05-08 17:35 29.15973 52.29582 35126 ft 393 kts 216°
2026-05-08 17:35 29.11416 52.26098 35104 ft 393 kts 216°
2026-05-08 17:36 29.06873 52.22616 35099 ft 394 kts 216°
2026-05-08 17:36 29.02343 52.19142 35099 ft 393 kts 216°
2026-05-08 17:37 28.97801 52.15674 35057 ft 393 kts 216°
2026-05-08 17:37 28.93260 52.12211 35055 ft 393 kts 216°
2026-05-08 17:38 28.88705 52.08745 35027 ft 394 kts 216°
2026-05-08 17:38 28.84157 52.05278 35012 ft 393 kts 216°
2026-05-08 17:39 28.79598 52.01814 35012 ft 393 kts 216°
2026-05-08 17:39 28.75039 51.98357 35002 ft 394 kts 216°
2026-05-08 17:40 28.70478 51.94901 34988 ft 394 kts 216°
2026-05-08 17:40 28.65939 51.91466 34990 ft 394 kts 216°
2026-05-08 17:41 28.61376 51.88017 34980 ft 394 kts 216°
2026-05-08 17:41 28.56812 51.84569 34955 ft 394 kts 215°
2026-05-08 17:42 28.52237 51.81107 34954 ft 395 kts 216°
2026-05-08 17:42 28.47664 51.77654 34946 ft 395 kts 215°
2026-05-08 17:43 28.43089 51.74205 34940 ft 394 kts 215°
2026-05-08 17:43 28.38514 51.70753 34931 ft 395 kts 215°
2026-05-08 17:44 28.33939 51.67312 34915 ft 394 kts 215°
2026-05-08 17:44 28.29357 51.63871 34900 ft 395 kts 215°
2026-05-08 17:45 28.24770 51.60429 34897 ft 396 kts 215°
2026-05-08 17:45 28.20203 51.57000 34899 ft 396 kts 215°
2026-05-08 17:46 28.15600 51.53549 34898 ft 396 kts 215°
2026-05-08 17:46 28.11003 51.50102 34892 ft 397 kts 215°
2026-05-08 17:47 28.06395 51.46658 34894 ft 397 kts 215°
2026-05-08 17:47 28.02555 51.43790 34893 ft 397 kts 215°
2026-05-08 17:48 27.97162 51.39761 34876 ft 397 kts 215°
2026-05-08 17:48 27.92535 51.36313 34879 ft 398 kts 215°
2026-05-08 17:49 27.87911 51.32875 34887 ft 398 kts 215°
2026-05-08 17:49 27.83286 51.29440 34890 ft 398 kts 215°
2026-05-08 17:50 27.78665 51.26000 34891 ft 398 kts 215°
2026-05-08 17:50 27.74088 51.22594 34894 ft 398 kts 215°
2026-05-08 17:51 27.69454 51.19158 34896 ft 398 kts 215°
2026-05-08 17:51 27.64838 51.15752 34896 ft 398 kts 214°
2026-05-08 17:52 27.60202 51.12344 34893 ft 398 kts 214°
2026-05-08 17:53 27.53245 51.07241 34896 ft 398 kts 214°
2026-05-08 17:53 27.48601 51.03828 34896 ft 398 kts 215°
2026-05-08 17:54 27.43978 51.00424 34892 ft 398 kts 214°
2026-05-08 17:54 27.41661 50.98723 34671 ft 398 kts 214°
2026-05-08 17:54 27.39320 50.97007 34440 ft 398 kts 215°
2026-05-08 17:54 27.37038 50.95336 34197 ft 399 kts 214°
2026-05-08 17:55 27.34701 50.93628 33973 ft 401 kts 214°
2026-05-08 17:55 27.32366 50.91923 33538 ft 402 kts 214°
2026-05-08 17:55 27.30022 50.90211 32695 ft 401 kts 214°
2026-05-08 17:55 27.27678 50.88495 31830 ft 402 kts 214°
2026-05-08 17:56 27.25336 50.86778 30949 ft 404 kts 214°
2026-05-08 17:56 27.22978 50.85050 30058 ft 405 kts 214°
2026-05-08 17:56 27.20605 50.83316 28978 ft 407 kts 214°
2026-05-08 17:56 27.18309 50.81446 27925 ft 409 kts 220°
2026-05-08 17:57 27.16257 50.79196 26825 ft 412 kts 226°
2026-05-08 17:57 27.14295 50.76836 25762 ft 415 kts 226°
2026-05-08 17:57 27.12339 50.74459 24749 ft 417 kts 227°
2026-05-08 17:57 27.10393 50.72068 23748 ft 411 kts 227°
2026-05-08 17:58 27.08479 50.69703 22662 ft 408 kts 227°
2026-05-08 17:58 27.06581 50.67356 21561 ft 403 kts 227°
2026-05-08 17:58 27.04712 50.65039 20517 ft 399 kts 227°
2026-05-08 17:58 27.02857 50.62732 19633 ft 396 kts 227°
2026-05-08 17:59 27.00947 50.60522 18829 ft 394 kts 221°
2026-05-08 17:59 26.98746 50.58751 18027 ft 396 kts 210°
2026-05-08 17:59 26.96227 50.57482 17186 ft 400 kts 199°
2026-05-08 17:59 26.93511 50.56791 16439 ft 401 kts 188°
2026-05-08 18:00 26.90712 50.56693 15707 ft 403 kts 179°
2026-05-08 18:00 26.85108 50.56951 14289 ft 403 kts 180°
2026-05-08 18:00 26.82313 50.57075 13697 ft 399 kts 179°
2026-05-08 18:01 26.79546 50.57198 12977 ft 398 kts 179°
2026-05-08 18:01 26.76791 50.57322 12308 ft 394 kts 179°
2026-05-08 18:01 26.74061 50.57445 11632 ft 391 kts 179°
2026-05-08 18:01 26.71370 50.57566 11177 ft 382 kts 180°
2026-05-08 18:02 26.68781 50.57688 11044 ft 359 kts 181°
2026-05-08 18:02 26.67178 50.57767 10954 ft 339 kts 179°
2026-05-08 18:02 26.64181 50.57915 10688 ft 308 kts 180°
2026-05-08 18:02 26.62079 50.58014 10290 ft 300 kts 181°
2026-05-08 18:03 26.60001 50.58103 10056 ft 298 kts 180°
2026-05-08 18:03 26.57920 50.58191 9892 ft 297 kts 181°
2026-05-08 18:03 26.55855 50.58278 9774 ft 298 kts 181°
2026-05-08 18:03 26.53796 50.58378 9647 ft 299 kts 178°
2026-05-08 18:04 26.51787 50.59023 9492 ft 305 kts 153°
2026-05-08 18:04 26.50219 50.60593 9166 ft 305 kts 124°
2026-05-08 18:04 26.49452 50.62756 8819 ft 301 kts 97°
2026-05-08 18:04 26.49255 50.65061 8562 ft 295 kts 97°
2026-05-08 18:05 26.48674 50.67266 8178 ft 294 kts 115°
2026-05-08 18:05 26.47665 50.69196 7804 ft 293 kts 122°
2026-05-08 18:05 26.46601 50.71087 7559 ft 282 kts 122°
2026-05-08 18:05 26.45358 50.72735 7182 ft 273 kts 143°
2026-05-08 18:06 26.43724 50.73697 7003 ft 263 kts 165°
2026-05-08 18:06 26.41935 50.73915 6689 ft 257 kts 188°
2026-05-08 18:06 26.40244 50.73388 6434 ft 249 kts 210°
2026-05-08 18:06 26.38697 50.72517 5949 ft 256 kts 200°
2026-05-08 18:07 26.36903 50.72505 5254 ft 266 kts 161°
2026-05-08 18:07 26.35322 50.73563 4591 ft 269 kts 133°
2026-05-08 18:07 26.34207 50.75239 3931 ft 267 kts 117°
2026-05-08 18:07 26.33230 50.77000 3328 ft 269 kts 118°
2026-05-08 18:08 26.32236 50.78722 3070 ft 255 kts 118°
2026-05-08 18:08 26.31301 50.80314 2942 ft 239 kts 118°
2026-05-08 18:08 26.30395 50.81865 2687 ft 237 kts 117°
2026-05-08 18:08 26.29502 50.83396 2529 ft 237 kts 117°
2026-05-08 18:09 26.28466 50.84818 2526 ft 238 kts 136°
2026-05-08 18:09 26.27080 50.85788 2498 ft 235 kts 158°
2026-05-08 18:09 26.25500 50.86189 2501 ft 232 kts 180°
2026-05-08 18:09 26.23913 50.85994 2505 ft 229 kts 201°
2026-05-08 18:10 26.22533 50.85270 2502 ft 214 kts 222°
2026-05-08 18:10 26.21412 50.84252 2501 ft 206 kts 227°
2026-05-08 18:10 26.20317 50.83236 2509 ft 203 kts 227°
2026-05-08 18:10 26.19311 50.82167 2504 ft 195 kts 242°
2026-05-08 18:11 26.18690 50.80876 2506 ft 186 kts 261°
2026-05-08 18:11 26.18473 50.79522 2290 ft 170 kts 277°
2026-05-08 18:11 26.18631 50.78242 1778 ft 163 kts 295°
2026-05-08 18:11 26.19090 50.77184 1601 ft 141 kts 309°
2026-05-08 18:12 26.19606 50.76294 1526 ft 134 kts 309°
2026-05-08 18:12 26.20107 50.75429 1507 ft 132 kts 309°
2026-05-08 18:12 26.20603 50.74574 1506 ft 131 kts 310°
2026-05-08 18:12 26.21095 50.73724 1506 ft 131 kts 310°
2026-05-08 18:13 26.21587 50.72874 1493 ft 131 kts 310°
2026-05-08 18:13 26.22079 50.72024 1396 ft 130 kts 310°
2026-05-08 18:13 26.22569 50.71178 1270 ft 128 kts 309°
2026-05-08 18:13 26.23050 50.70346 1123 ft 129 kts 309°
2026-05-08 18:14 26.23535 50.69507 965 ft 129 kts 308°
2026-05-08 18:14 26.24020 50.68669 825 ft 129 kts 307°
2026-05-08 18:14 26.24508 50.67824 668 ft 131 kts 306°
2026-05-08 18:14 26.25007 50.66961 510 ft 131 kts 305°
2026-05-08 18:15 26.25493 50.66121 353 ft 131 kts 306°
2026-05-08 18:15 26.25982 50.65273 170 ft 128 kts 305°
2026-05-08 18:15 26.26468 50.64448 14 ft 124 kts 303°
2026-05-08 18:15 26.26783 50.63892 14 ft 52 kts 302°
2026-05-08 18:16 26.26934 50.63624 12 ft 26 kts 297°
2026-05-08 18:16 26.26939 50.63479 13 ft 14 kts 234°
2026-05-08 18:16 26.26929 50.63467 12 ft 0 kts 225°
2026-05-08 18:17 26.26928 50.63466 12 ft 2 kts 224°
2026-05-08 18:17 26.26859 50.63415 12 ft 18 kts 212°
2026-05-08 18:17 26.26816 50.63385 13 ft 0 kts 211°
2026-05-08 18:18 26.26809 50.63380 13 ft 1 kts 210°
2026-05-08 18:18 26.26799 50.63375 14 ft 0 kts 205°